Location: Dealu Mare
(46.0500°N, 22.8167°E)
Time: 20:37:07
(UTC+00:00)

Cosmos 2082 Rocket - Pass Details

Date: 15 January 2026
Orbit: 832 x 853 km, 71.0° (Epoch: 10 February)

Event Time Altitude Azimuth Distance (km) Brightness Sun altitude
Exits shadow 04:54:35 - 331° (NNW) 2,751 4.4 -12.3°
Reaches altitude 10° 04:55:19 10° 330° (NNW) 2,472 4.2 -12.2°
Maximum altitude 05:00:59 73° 247° (WSW) 888 2.2 -11.2°
Drops below altitude 10° 05:06:38 10° 164° (SSE) 2,469 5.1 -10.3°
Sets 05:09:04 0° 162° (SSE) 3,402 5.9 -9.9°
